Regional Weather Roundup
Issued by NWS

Home | Current Version | Previous Version | Graphics & Text | Print | Product List | Glossary On
Versions: 1 2 3 4 5 6 7 8 9 10 11 12 13 14 15 16 17 18 19 20 21 22 23 24 25 26 27
000
ASUS45 KPSR 271810
RWRAZ

ARIZONA HOURLY REGIONAL WEATHER ROUNDUP
NATIONAL WEATHER SERVICE PHOENIX AZ
1100 AM MST FRI MAY 27 2016

NOTE: FAIR INDICATES FEW OR NO CLOUDS BELOW 12,000 FEET WITH NO
SIGNIFICANT WEATHER AND/OR OBSTRUCTIONS TO VISIBILITY.

AZZ001>003-036-271900-
NORTHWEST ARIZONA

CITY           SKY/WX    TMP DP  RH WIND       PRES   REMARKS
KINGMAN        SUNNY     78  29  16 SW10      29.94F
6HR MIN TEMP:  51; 6HR MAX TEMP:  79;

$$

AZZ004>008-015-016-018-271900-
NORTH CENTRAL ARIZONA

CITY           SKY/WX    TMP DP  RH WIND       PRES   REMARKS
GRAND CANYON   MOSUNNY   63  27  25 SW8G20    30.06F
6HR MIN TEMP:  29; 6HR MAX TEMP:  64;

WILLIAMS       MOSUNNY   63  27  25 W10G16    30.14F
PRESCOTT       MOSUNNY   71  26  18 VRB3      30.01F
6HR MIN TEMP:  45; 6HR MAX TEMP:  71;

FLAGSTAFF      PTSUNNY   59  27  29 VRB5      30.08S
6HR MIN TEMP:  30; 6HR MAX TEMP:  61;

PAYSON         SUNNY     70  27  19 W8G17     30.03F
PAGE           SUNNY     71  32  23 VRB6      29.94F
6HR MIN TEMP:  54; 6HR MAX TEMP:  72;

$$

AZZ009>014-017-271900-
NORTHEAST ARIZONA

CITY           SKY/WX    TMP DP  RH WIND       PRES   REMARKS
WINSLOW        SUNNY     73  29  19 NW12      29.99F
6HR MIN TEMP:  42; 6HR MAX TEMP:  73;

SAINT JOHNS    SUNNY     67  29  24 NW15G22   30.01F
6HR MIN TEMP:  44; 6HR MAX TEMP:  67;

WINDOW ROCK    SUNNY     66  26  22 NW10G16   30.02F
6HR MIN TEMP:  37; 6HR MAX TEMP:  66;

SHOW LOW       MOSUNNY   64  25  22 W13G23    30.06S
$$

AZZ023-271900-
GREATER PHOENIX AREA

CITY           SKY/WX    TMP DP  RH WIND       PRES   REMARKS
PHOENIX        MOSUNNY   82  35  18 VRB3      29.84F
6HR MIN TEMP:  67; 6HR MAX TEMP:  83;

BUCKEYE        SUNNY     82  39  21 S6        29.87F
GLENDALE       SUNNY     82  37  20 S6        29.87F
LUKE AFB       SUNNY     84  35  17 SE3       29.84F
6HR MIN TEMP:  63; 6HR MAX TEMP:  84; 6HR PCP: TRACE;

DEER VALLEY    SUNNY     81  34  18 W6        29.86F
6HR MIN TEMP:  60; 6HR MAX TEMP:  82;

SCOTTSDALE     SUNNY     82  33  17 VRB5      29.87F
6HR MIN TEMP:  65; 6HR MAX TEMP:  82;

MESA-GATEWAY   SUNNY     81  34  18 NW3       29.87F
CHANDLER       SUNNY     82  34  17 SW6       29.86F
$$

AZZ027-028-271900-
SOUTHWEST MARICOPA COUNTY AND PINAL COUNTY

CITY           SKY/WX    TMP DP  RH WIND       PRES   REMARKS
CASA GRANDE    SUNNY     82  34  17 CALM      29.88F
6HR MIN TEMP:  55; 6HR MAX TEMP:  82;

GILA BEND      SUNNY     83  40  21 W7        29.84F
6HR MIN TEMP:  62; 6HR MAX TEMP:  84;

$$

AZZ503-504-507>509-271900-
SOUTHEAST ARIZONA

CITY           SKY/WX    TMP DP  RH WIND       PRES   REMARKS
TUCSON         SUNNY     80  28  15 MISG      29.94F
6HR MIN TEMP:  57; 6HR MAX TEMP:  80;

DAVIS-MONTHAN  MOSUNNY   78  27  15 S5        29.92F
6HR MIN TEMP:  55; 6HR MAX TEMP:  78;

RYAN FIELD     SUNNY     79  30  17 NE3       29.93F
NOGALES        SUNNY     76  23  14 NW6       29.96F
6HR MIN TEMP:  46; 6HR MAX TEMP:  77;

SIERRA VISTA   SUNNY     70  19  14 VRB3      30.02F
6HR MIN TEMP:  51; 6HR MAX TEMP:  72;

DOUGLAS        SUNNY     73  21  14 SW7       29.99F
6HR MIN TEMP:  42; 6HR MAX TEMP:  73;

SAFFORD        SUNNY     80  28  15 NW12      29.90F
6HR MIN TEMP:  51; 6HR MAX TEMP:  80;

$$

AZZ020-021-025-026-031-271900-
SOUTHWEST ARIZONA

CITY           SKY/WX    TMP DP  RH WIND       PRES   REMARKS
YUMA           SUNNY     85  46  25 SW7       29.84S
6HR MIN TEMP:  65; 6HR MAX TEMP:  85;

$$

CAZ031-033-041-043-047-048-061-271900-
SOUTHERN CALIFORNIA

CITY           SKY/WX    TMP DP  RH WIND       PRES   REMARKS
DOWNTOWN L.A.  MOSUNNY   68  55  63 CALM      29.92F
6HR MIN TEMP:  58; 6HR MAX TEMP:  68;

L.A. AIRPORT   PTSUNNY   65  56  72 W8        29.94F
6HR MIN TEMP:  58; 6HR MAX TEMP:  65;

SAN DIEGO      CLOUDY    65  55  70 W6        29.95F
6HR MIN TEMP:  63; 6HR MAX TEMP:  65;

BURBANK        SUNNY     68  54  60 SE3       29.92F
6HR MIN TEMP:  55; 6HR MAX TEMP:  69;

ONTARIO        MOSUNNY   69  52  54 CALM      29.91F
6HR MIN TEMP:  54; 6HR MAX TEMP:  69;

RIVERSIDE      SUNNY     70  52  52 VRB3      29.92F
6HR MIN TEMP:  56; 6HR MAX TEMP:  70;

PALM SPRINGS   MOSUNNY   86  41  20 VRB3      29.82F
EL CENTRO NAS  MOSUNNY   85  51  31 E3        29.84S
6HR MIN TEMP:  60; 6HR MAX TEMP:  85;

IMPERIAL       SUNNY     86  53  32 CALM      29.82F
6HR MIN TEMP:  64; 6HR MAX TEMP:  86;

BLYTHE         SUNNY     85  45  24 VRB3      29.83F
6HR MIN TEMP:  67; 6HR MAX TEMP:  86;

NEEDLES        SUNNY     90  39  16 E7        29.82F
6HR MIN TEMP:  68; 6HR MAX TEMP:  90;

$$

NVZ020-UTZ003-271900-
SOUTHERN NEVADA-UTAH

CITY           SKY/WX    TMP DP  RH WIND       PRES   REMARKS
LAS VEGAS      MOSUNNY   82  32  16 W3        29.85F
6HR MIN TEMP:  68; 6HR MAX TEMP:  83;

SALT LAKE CITY MOSUNNY   68  38  33 W6        29.95F
6HR MIN TEMP:  54; 6HR MAX TEMP:  68;

$$

NMZ009-TXZ055-271900-
NEW MEXICO-WEST TEXAS

CITY           SKY/WX    TMP DP  RH WIND       PRES   REMARKS
ALBUQUERQUE    MOSUNNY   67  28  23 CALM      29.93F
6HR MIN TEMP:  45; 6HR MAX TEMP:  69;

EL PASO        SUNNY     77  23  13 SW14      29.94F
6HR MIN TEMP:  60; 6HR MAX TEMP:  77;

$$


........................KEY........................
SKY/WX - SKY CONDITION/WEATHER
TMP    - TEMPERATURE IN FAHRENHEIT
DP     - DEW POINT IN FAHRENHEIT
RH     - RELATIVE HUMIDITY IN PERCENT
WIND   - DIRECTION AND SPEED IN MILES PER HOUR (MPH)
VRB    - VARIABLE WIND DIRECTION
PRES   - MEAN SEA LEVEL PRESSURE IN INCHES OF MERCURY
         F - FALLING PRESSURE   R - RISING PRESSURE
         S - STEADY PRESSURE
VSB    - VISIBILITY IN MILES
HX     - HEAT INDEX IN FAHRENHEIT
WCI    - WIND CHILL INDEX IN FAHRENHEIT
TC     - TEMPERATURE IN CELSIUS WHICH IS ALSO KNOWN AS
         TEMPERATURE IN CENTIGRADE
AFB    - AIR FORCE BASE
         LUKE AFB IS LUKE AIR FORCE BASE
         DAVIS-MONTHAN IS DAVIS-MONTHAN AIR FORCE BASE
NAS    - NAVAL AIR STATION
         EL CENTRO NAS IS EL CENTRO NAVAL AIR STATION
N/A    - NOT AVAILABLE





USA.gov is the U.S. government's official web portal to all federal, state and local government web resources and services.